Hourly Data Report for September 02, 2020

LOURDES DE BLANC SABLON A
QUEBEC
Current Station Operator: NAVCAN

51°26'31.000" N
57°11'10.000" W
37.20 m
7040815
71808
YBX

Download Data

Hourly Data (September 2020)
Hourly Data Report for September 2, 2020
TIME Temp Definition
°C
Dew Point Definition
°C
Rel Hum Definition
%
Wind Dir Definition
10's deg

Wind Spd Definition
km/h
Visibility Definition
km
Stn Press Definition
kPa
Hmdx Definition


Wind Chill Definition


Weather Definition


00:00 9.0 8.4 96 36 1 24.1 101.72     LegendNANA
01:00 9.0 8.3 95 0 1 24.1 101.73     LegendNANA
02:00 7.9 7.4 96 4 7 24.1 101.71     Mainly Clear
03:00 7.7 6.6 92 3 5 24.1 101.68     LegendNANA
04:00 6.5 5.7 94 3 7 24.1 101.66     LegendNANA
05:00 7.7 6.5 92 5 3 24.1 101.66     Mostly Cloudy
06:00 8.5 7.1 91 3 4 24.1 101.69     LegendNANA
07:00 9.8 8.4 91 8 4 24.1 101.69     LegendNANA
08:00 12.8 10.9 89 25 7 24.1 101.67     Cloudy
09:00 14.7 11.7 82 23 27 24.1 101.67     LegendNANA
10:00 14.7 12.2 85 24 32 24.1 101.63     LegendNANA
11:00 16.0 11.4 74 23 26 24.1 101.59     Cloudy
12:00 15.8 11.2 74 23 34 24.1 101.53     LegendNANA
13:00 16.1 12.3 78 23 37 24.1 101.49     LegendNANA
14:00 15.4 11.7 79 23 34 24.1 101.42     Cloudy
15:00 14.7 11.9 83 23 31 24.1 101.41     LegendNANA
16:00 14.8 12.8 88 23 23 24.1 101.35     LegendNANA
17:00 14.8 12.9 88 23 23 24.1 101.28     Cloudy
18:00 14.5 12.8 90 23 30 24.1 101.21     LegendNANA
19:00 14.1 12.5 90 23 30 24.1 101.17     LegendNANA
20:00 13.8 12.6 92 23 23 24.1 101.14     Mostly Cloudy
21:00 13.8 12.5 92 22 31 24.1 101.09     LegendNANA
22:00 13.7 12.0 90 23 27 24.1 101.05     LegendNANA
23:00 14.3 11.8 85 22 32 24.1 100.94     Mostly Cloudy

Notes on Data Quality.

Legend

  • E = Estimated
  • M = Missing
  • NA = Not Available*
  • [empty] = Indicates an unobserved value
Date modified: